TimeEDT,TemperatureF,Dew PointF,Humidity,Sea Level PressureIn,VisibilityMPH,Wind Direction,Wind SpeedMPH,Gust SpeedMPH,PrecipitationIn,Events,Conditions,WindDirDegrees,DateUTC
12:53 AM,66.9,64.9,93,30.10,6.0,North,3.5,-,N/A,,Overcast,360,2013-08-20 04:53:00
1:53 AM,68.0,66.0,93,30.09,6.0,Calm,Calm,-,N/A,,Overcast,0,2013-08-20 05:53:00
2:53 AM,66.9,64.9,93,30.09,6.0,Calm,Calm,-,N/A,,Overcast,0,2013-08-20 06:53:00
3:53 AM,66.9,64.9,93,30.08,4.0,Calm,Calm,-,N/A,,Overcast,0,2013-08-20 07:53:00
4:53 AM,66.9,64.9,93,30.07,7.0,Calm,Calm,-,N/A,,Overcast,0,2013-08-20 08:53:00
5:50 AM,66.2,64.4,94,30.15,1.5,Calm,Calm,-,N/A,,Clear,0,2013-08-20 09:50:00
5:53 AM,66.0,64.0,93,30.08,0.5,Calm,Calm,-,N/A,Fog,Fog,0,2013-08-20 09:53:00
5:58 AM,66.0,64.0,93,30.15,2.0,Calm,Calm,-,N/A,,Mostly Cloudy,0,2013-08-20 09:58:00
6:06 AM,66.0,64.0,93,30.15,3.0,Calm,Calm,-,N/A,,Mostly Cloudy,0,2013-08-20 10:06:00
6:53 AM,64.9,64.0,97,30.10,4.0,Calm,Calm,-,N/A,,Scattered Clouds,0,2013-08-20 10:53:00
7:53 AM,66.0,64.0,93,30.12,6.0,Calm,Calm,-,N/A,,Mostly Cloudy,0,2013-08-20 11:53:00
8:53 AM,70.0,66.0,87,30.14,6.0,Calm,Calm,-,N/A,,Scattered Clouds,0,2013-08-20 12:53:00
8:56 AM,70.0,66.0,87,30.21,10.0,ENE,3.5,-,N/A,,Scattered Clouds,60,2013-08-20 12:56:00
9:53 AM,73.0,66.0,79,30.15,10.0,Calm,Calm,-,N/A,,Scattered Clouds,0,2013-08-20 13:53:00
10:53 AM,75.9,66.9,74,30.16,10.0,Calm,Calm,-,N/A,,Scattered Clouds,0,2013-08-20 14:53:00
11:53 AM,78.1,66.0,66,30.16,10.0,East,3.5,-,N/A,,Scattered Clouds,100,2013-08-20 15:53:00
12:53 PM,81.0,66.0,60,30.14,10.0,Variable,3.5,-,N/A,,Scattered Clouds,0,2013-08-20 16:53:00
1:53 PM,82.9,64.9,54,30.13,10.0,Calm,Calm,-,N/A,,Scattered Clouds,0,2013-08-20 17:53:00
2:53 PM,84.9,66.0,53,30.10,10.0,Calm,Calm,-,N/A,,Scattered Clouds,0,2013-08-20 18:53:00
3:53 PM,84.9,64.0,49,30.08,10.0,SSE,5.8,-,N/A,,Mostly Cloudy,150,2013-08-20 19:53:00
4:53 PM,84.0,63.0,49,30.06,10.0,SSE,4.6,-,N/A,,Mostly Cloudy,160,2013-08-20 20:53:00
5:53 PM,82.9,64.0,53,30.07,10.0,West,4.6,-,N/A,,Mostly Cloudy,280,2013-08-20 21:53:00
6:27 PM,84.0,66.0,55,30.15,10.0,WSW,6.9,-,N/A,Thunderstorm,Thunderstorm,240,2013-08-20 22:27:00
6:53 PM,75.9,63.0,64,30.09,10.0,SE,9.2,19.6,N/A,Thunderstorm,Thunderstorm,140,2013-08-20 22:53:00
7:11 PM,75.9,64.9,69,30.15,10.0,South,5.8,-,0.00,,Mostly Cloudy,170,2013-08-20 23:11:00
7:53 PM,75.0,64.9,71,30.10,10.0,SE,3.5,-,0.00,,Mostly Cloudy,140,2013-08-20 23:53:00
8:53 PM,72.0,64.9,78,30.11,10.0,Calm,Calm,-,N/A,,Mostly Cloudy,0,2013-08-21 00:53:00
9:53 PM,72.0,66.0,81,30.12,10.0,Calm,Calm,-,N/A,,Mostly Cloudy,0,2013-08-21 01:53:00
10:53 PM,70.0,66.0,87,30.13,10.0,Calm,Calm,-,N/A,,Scattered Clouds,0,2013-08-21 02:53:00
11:53 PM,68.0,66.0,93,30.14,10.0,Calm,Calm,-,N/A,,Scattered Clouds,0,2013-08-21 03:53:00